CAPE
1259 934 1087 1079 993 861 1399 930 2506 1628 1885 1704 1936 2048 2216 2026 1992 2311 1917 2176 3043 2407
1315 1068 1182 1395 1537 2066 1501 1653 1475 1219 1386 1636 1919 1935 2186 1826 1849 2297 2165 1905 2157 2241
938 1107 1069 1236 1134 1578 647 1994 2070 1401 1320 1533 1684 2001 2116 2637 1962 1863 1791 1415 2436 2162
732 684 986 1087 1106 1267 1404 1589 1782 1720 1560 1679 1769 1738 1937 2704 2423 1835 1768 1809 1803 1672
1218 814 562 776 945 1123 1425 1497 1620 1795 1779 1641 1727 2387 1947 1713 1772 1897 1618 1628 1522 1364
2240 1203 831 645 677 978 1540 1662 1426 1530 1777 2072 1901 2141 2166 1952 1845 1734 1935 1956 1998 1444
1823 1486 1070 1190 751 814 1154 1433 1531 1622 1507 1499 1745 1827 1746 1685 1762 1650 1356 1282 1276 1617
1885 2268 1525 1443 1214 973 1088 1204 1201 1353 1391 1413 1396 1147 1304 1636 1755 1834 1575 1442 1511 1563
1210 824 1444 1650 1345 1610 1169 1269 1234 1187 1265 1400 567 393 406 596 1587 1639 1795 1714 1737 1227
317 341 407 325 684 1067 975 1061 1189 1275 953 618 483 216 237 292 891 1635 1616 1812 2177 1979
41 32 30 75 129 118 269 818 1007 375 289 128 146 143 201 415 1565 1039 847 715 600 458
97 108 76 69 29 16 163 177 137 113 59 55 52 131 177 397 860 618 248 108 107 70
193 126 108 166 168 253 82 79 49 41 53 73 69 58 81 87 114 199 131 72 1 0
110 84 115 151 103 47 43 20 56 31 19 62 50 63 57 36 45 21 39 54 49 22
CIN
-0 -0 -0 -2 -78 -0 -0 -3 -1 -0 -0 -0 -0 -0 -0 -0 -2 -0 -0 -0 -4 -3
-0 -0 -0 -11 -0 -12 -0 -4 -0 -0 -0 -0 -0 -0 -0 -0 -1 -0 -1 -0 -2 -6
-0 -0 -0 -0 -7 -15 -11 -4 -0 -0 -0 -0 -0 -0 -0 -0 -0 -0 -0 -0 -0 -1
-0 -0 -0 -0 -0 -0 -0 -5 -0 -0 -0 -0 -0 -0 -0 -0 -2 -0 -0 -0 -1 -0
-0 -0 -0 -0 -0 -0 -0 -0 -0 -0 -0 -0 -0 -1 -0 -0 -2 -0 -0 -0 -0 -0
-0 -0 -0 -0 -0 -0 -0 -0 -0 -0 -0 -0 -0 -0 -0 -0 -0 -0 -0 -2 -0 -0
-0 -0 -0 -0 -0 -0 -0 -0 -0 -0 -0 -0 -0 -0 -0 -0 -0 -0 -0 -0 -0 -0
-0 -0 -0 -0 -0 -0 -0 -0 -0 -0 -0 -0 -0 -0 -24 -0 -0 -0 -0 -0 -0 -0
-1 -17 -0 -0 -5 -0 -0 -0 -1 -0 -0 -1 -3 -31 -76 -46 -0 -0 -0 -1 -1 -0
-1 -2 -1 -7 -0 -0 -4 -0 -0 -0 -8 -37 -59 -46 -64 -74 -36 -0 -0 -0 -0 -0
-3 -0 -0 -1 -0 -2 -4 -4 -1 -8 -46 -33 -45 -95 -88 -69 -0 -14 -18 -29 -35 -40
-8 -0 -2 -0 -0 -0 -5 -2 -23 -40 -28 -19 -74 -82 -80 -17 -0 -0 -52 -31 -38 -41
-1 -0 -0 -0 -0 -0 -4 -20 -45 -32 -25 -47 -49 -68 -68 -25 -14 -7 -11 -54 -1 -0
-6 -7 -9 -0 -12 -18 -22 -52 -30 -7 -1 -27 -46 -45 -53 -49 -41 -16 -4 -0 -4 -7
Wind_Speed
5 4 4 4 7 3 9 7 5 3 2 3 3 2 1 2 5 3 3 2 10 13
7 4 11 4 9 15 6 7 6 4 3 3 2 2 2 4 1 3 1 3 1 3
8 7 7 8 8 9 8 15 12 5 6 5 5 2 3 1 4 2 3 2 1 2
13 13 13 12 8 11 15 12 9 8 7 6 4 5 5 6 6 6 2 2 5 3
16 16 18 16 13 14 14 13 9 10 9 7 4 8 7 5 10 6 7 4 6 6
20 20 18 20 18 20 14 16 10 12 10 8 7 8 10 7 8 9 6 8 9 7
21 19 19 21 23 22 20 17 14 15 14 13 11 13 10 11 10 10 9 9 9 9
23 19 22 27 25 23 23 24 20 19 16 19 13 23 18 15 14 12 11 10 11 9
25 30 28 31 26 28 28 26 26 24 21 21 31 33 28 25 15 18 15 15 16 16
40 43 43 43 38 34 33 32 34 33 36 36 38 39 36 30 21 23 25 25 24 22
nan nan nan nan 40 41 44 44 42 39 38 42 43 45 43 38 40 36 36 35 36 34
nan 24 nan nan nan nan 50 52 48 47 nan nan nan 50 49 35 41 43 43 43 43 nan
29 28 26 28 33 38 nan nan nan nan nan nan nan nan nan nan 46 43 42 nan nan nan
25 nan 20 18 22 nan nan nan nan nan nan nan nan nan nan nan nan nan nan nan nan nan
Wind_Direction
210 160 155 178 213 168 218 253 264 303 281 135 284 154 161 83 81 2 51 190 194 186
267 189 235 199 194 222 215 230 263 240 258 261 282 224 253 114 250 166 35 72 19 186
270 271 259 224 208 229 205 216 243 233 234 200 220 222 268 217 295 180 148 76 59 215
258 265 270 256 237 229 211 235 231 232 243 239 266 262 232 174 232 291 232 202 204 224
262 259 266 261 259 258 250 253 247 246 230 238 226 271 274 264 216 247 239 238 238 224
266 268 256 266 262 261 255 260 247 249 257 260 252 256 279 267 261 251 265 252 246 255
269 265 261 258 257 261 257 254 252 264 258 251 255 269 285 292 277 273 255 261 270 254
254 259 247 258 253 258 258 258 251 259 261 267 252 247 229 262 279 276 267 267 257 275
244 255 258 254 259 252 254 250 252 252 252 258 252 233 228 230 235 253 264 253 255 259
256 246 238 239 243 253 256 256 251 248 248 246 237 229 234 235 243 248 251 247 247 256
nan nan nan nan 235 242 240 249 246 248 247 243 240 233 235 236 258 257 256 256 256 253
nan 266 nan nan nan nan 241 255 248 247 nan nan nan 232 235 232 261 259 257 253 248 nan
256 254 258 255 256 253 nan nan nan nan nan nan nan nan nan nan 248 260 272 nan nan nan
252 nan 264 263 261 nan nan nan nan nan nan nan nan nan nan nan nan nan nan nan nan nan